Regional Weather Roundup
Issued by NWS

Home | Current Version | Previous Version | Graphics & Text | Print | Product List | Glossary Off
Versions: 1 2 3 4 5 6 7 8 9 10 11 12 13 14 15 16 17 18 19 20 21 22 23 24 25 26 27 28 29 30 31 32 33 34 35 36 37 38 39 40 41 42 43 44 45 46 47 48

000
ASUS43 KDMX 020607
RWRIA

WEATHER ROUNDUP FOR IOWA
NATIONAL WEATHER SERVICE DES MOINES IA
100 AM CDT TUE SEP 02 2014

NOTE: "FAIR" INDICATES FEW OR NO CLOUDS BELOW 12,000 FEET WITH NO
SIGNIFICANT WEATHER AND/OR OBSTRUCTIONS TO VISIBILITY.

* - THESE STATIONS ARE NOT NWS STATIONS...THUS NOT UNDER NWS
QUALITY CONTROL.  THEY ALSO DO NOT REPORT WEATHER SUCH
AS PRECIPITATION OR FOG.

IAZ001>003-012>014-020>022-031>034-043>046-020700-
   NORTHWEST IOWA

CITY           SKY/WX    TMP DP  RH WIND       PRES   REMARKS
CARROLL *      CLEAR     63  61  94 W7        29.92R
CHEROKEE *     MOCLDY    61  59  93 W22G32    29.92R THUNDER
DENISON *      LGT RAIN  59  59 100 NW13G30   29.95R
LE MARS *      RAIN      61  57  88 NE15      29.86F
ORANGE CITY *  MOCLDY    63  55  77 W9        29.92S
SHELDON *      PTCLDY    61  59  94 W8        29.89R
SIOUX CITY       N/A     60  58  92 SW8         N/A
6HR MIN TEMP:  60; 6HR MAX TEMP:  79; 6HR PCP:  0.11;

SPENCER          N/A     60  57  89 SW5       29.89R
6HR MIN TEMP:  57; 6HR MAX TEMP:  74;

STORM LAKE *   MOCLDY    64  64 100 W23G32    29.93R
$$

IAZ055>058-069>071-079>083-090>094-020700-
   SOUTHWEST IOWA

CITY           SKY/WX    TMP DP  RH WIND       PRES   REMARKS
ATLANTIC *     CLEAR     61  61 100 W5        29.94R
AUDUBON *      MOCLDY    63  61  94 CALM      29.95R
CLARINDA *     CLEAR     64  64 100 NE3       29.95R
COUNCIL BLFS * PTCLDY    64  64 100 N12       29.96R
CRESTON *      CLEAR     61  61 100 NW7       29.94R
HARLAN  *      MOCLDY    64  61  88 NW16G31   30.00R
LAMONI           N/A     66  64  93 CALM      29.91S
6HR MIN TEMP:  65; 6HR MAX TEMP:  73;

RED OAK *      MOCLDY    63  63 100 CALM      29.95R
SHENANDOAH *     N/A     64  64 100 NW3       29.95R
$$

IAZ047>049-059>061-072>074-084-020700-
   CENTRAL IOWA

CITY           SKY/WX    TMP DP  RH WIND       PRES   REMARKS
AMES             N/A     62  60  93 NW6       29.90R
6HR MIN TEMP:  60; 6HR MAX TEMP:  72;

ANKENY *       CLEAR     63  63 100 CALM      29.91R
CHARITON *     PTCLDY    64  64 100 CALM      29.90S
DES MOINES       N/A     66  62  87 W3        29.90R
6HR MIN TEMP:  66; 6HR MAX TEMP:  76; 6HR PCP: TRACE;

GRINNELL*        N/A     63  61  94 W3        29.90F
KNOXVILLE *    PTCLDY    66  63  88 NW3       29.88F
MARSHALLTOWN     N/A     62  60  93 W5        29.89R
6HR MIN TEMP:  61; 6HR MAX TEMP:  72;

PELLA *          N/A     63  62  97 CALM      29.90S FOG
PERRY *          N/A     61  60  96 NW5       29.91R
$$

IAZ004>006-015-016-023>025-035-036-020700-
   NORTH CENTRAL IOWA

CITY           SKY/WX    TMP DP  RH WIND       PRES   REMARKS
ALGONA *       CLEAR     61  59  94 SW7       29.89R
CLARION *      MOCLDY    59  59 100 S5        29.90R
ESTHERVILLE      N/A     57  55  93 S6        29.87R
6HR MIN TEMP:  56; 6HR MAX TEMP:  71;

FORT DODGE *     N/A     61  59  94 CALM      29.91R
MASON CITY       N/A     59  57  93 CALM      29.90R
6HR MIN TEMP:  57; 6HR MAX TEMP:  70;

FOREST CITY *  CLEAR     55  55 100 CALM      29.89R
IOWA FALLS *     N/A     61  59  94 SW5       29.92R
$$

IAZ007>011-017>019-026>030-037>042-050>054-066-020700-
   NORTHEAST IOWA

CITY           SKY/WX    TMP DP  RH WIND       PRES   REMARKS
CEDAR RAPIDS     N/A     63  63 100 SW3       29.88R
6HR MIN TEMP:  62; 6HR MAX TEMP:  74;

CHARLES CITY * CLEAR     59  57  94 CALM      29.89R
CLINTON *        N/A     66  63  88 NW5       29.90R
DECORAH *      CLEAR     61  59  94 CALM      29.88R
DUBUQUE          N/A     63  61  93 CALM      29.88R
6HR MIN TEMP:  62; 6HR MAX TEMP:  73;

MONTICELLO *   CLEAR     61  61 100 CALM      29.88S
OELWEIN *      CLEAR     59  59 100 SW5       29.89R
WATERLOO         N/A     63  61  93 SW3       29.88R
6HR MIN TEMP:  62; 6HR MAX TEMP:  73;

$$

IAZ064-065-067-068-078-020700-
   EAST CENTRAL IOWA

CITY           SKY/WX    TMP DP  RH WIND       PRES   REMARKS
DAVENPORT        N/A     67  65  93 N5        29.87R
6HR MIN TEMP:  67; 6HR MAX TEMP:  75; 6HR PCP: TRACE;

IOWA CITY        N/A     65  63  93 CALM      29.89R
6HR MIN TEMP:  65; 6HR MAX TEMP:  77; 6HR PCP: TRACE;

MT. PLEASANT *   N/A     68  66  94 W3        29.89R
MUSCATINE *    PTCLDY    70  66  88 NW5       29.88R
QUAD CITIES      N/A     69  67  93 W3        29.86S
6HR MIN TEMP:  69; 6HR MAX TEMP:  77; 6HR PCP: TRACE;

$$

IAZ062-063-075>077-085>089-095>099-020700-
   SOUTHEAST IOWA

CITY           SKY/WX    TMP DP  RH WIND       PRES   REMARKS
BURLINGTON       N/A     69  68  96 W5        29.86F
6HR MIN TEMP:  69; 6HR MAX TEMP:  76; 6HR PCP: TRACE;

FAIRFIELD *    PTCLDY    66  64  94 W3        29.89S
FORT MADISON * CLEAR     70  70 100 CALM      29.88R
KEOKUK *       PTCLDY    70  68  94 CALM      29.86S
OSKALOOSA *      N/A     64  63  95 NW5       29.89S
CENTERVILLE *  CLEAR     64  64 100 CALM      29.92S
OTTUMWA          N/A     65  63  93 NW3       29.88F
6HR MIN TEMP:  65; 6HR MAX TEMP:  75; 6HR PCP: TRACE;

WASHINGTON *   MOCLDY    66  66 100 NW5       29.88S
$$

ABBREVIATIONS USED IN REMARKS
   TC - TEMPERATURES IN CELSIUS
  WCI - WIND CHILL INDEX
   HX - HEAT INDEX
  VSB - VISIBILITY
$$




USA.gov is the U.S. government's official web portal to all federal, state and local government web resources and services.